Voltar ao catálogo

SL-8 R/B

AtivoPO
NORAD 23604·ROCKET BODY·🇷🇺 Russia

Lançado Jul 5, 1995 de Plesetsk Cosmodrome

Loading…

Próximas Passagens (próximas 24 horas)

TLE

AtualizadoSource: Space-Track

Época: Sep 14, 2026, 03:07 UTC

1 23604U 95032B   26257.13019034  .00000073  00000-0  60817-4 0  9993
2 23604  82.9076 164.8389 0023487 196.8658 163.1720 13.74570633564504

Acompanhe SL-8 R/B em tempo real com AllMySat

Download on the App Store